Location: Peebles
(55.6412°N, 3.1714°W)
Time: 06:02:40
(UTC+01:00)

IRIDIUM 33 DEB - Pass Details

Date: 28 June 2022
Orbit: 580 x 635 km, 86.4° (Epoch: 10 August)

Event Time Altitude Azimuth Distance (km) Brightness Sun altitude
Rises 01:49:54 0° 6° (N) 2,822 ? -10.7°
Maximum altitude 01:55:16 13° 64° (ENE) 1,697 ? -10.6°
Drops below altitude 10° 01:57:20 10° 94° (E) 1,905 ? -10.6°
Sets 02:00:35 0° 121° (ESE) 2,803 ? -10.5°
